Beaufort MCAS, SC

12:28 AM EDT on August 17, 2017 (GMT -0400)
Beaufort Marine Corps Air Station

Weather History for KNBC - March, 2012

Change the Weather History Date:

Saturday, March 3, 2012

  Actual Average Record
Temperature  
Mean Temperature 65 °F -  
Max Temperature 73 °F 68 °F 87 °F (1945)
Min Temperature 57 °F 47 °F 21 °F (1980)
Growing Degree Days 15 (Base 50)    
Moisture  
Dew Point 59 °F    
Average Humidity 88    
Maximum Humidity 96    
Minimum Humidity 73    
Precipitation  
Precipitation 2.70 in - - ()
Sea Level Pressure  
Sea Level Pressure 29.78 in    
Wind  
Wind Speed 7 mph (SW)    
Max Wind Speed 21 mph    
Max Gust Speed 28 mph    
Visibility 5 miles    
Events Fog , Rain , Thunderstorm    
Averages and records for this station are not official NWS values.
T = Trace of Precipitation, MM = Missing Value Source: NWS Daily Summary

Daily Weather History Graph

Daily Weather History Graph

Search for Another Location

Airport or City:

Trip Planner

Search our weather history database for the weather conditions in past years. The results will help you decide how hot, cold, wet, or windy it might be!

Date:

Astronomy

Mar. 03, 2012 Rise Set
Actual Time 6:47 AM EST 6:22 PM EST
Civil Twilight 6:22 AM EST 6:46 PM EST
Nautical Twilight 5:54 AM EST 7:15 PM EST
Astronomical Twilight 5:26 AM EST 7:43 PM EST
Moon 1:44 PM EST (3/3) 3:09 AM EST (3/3)
Length of Visible Light 12h 23m
Length of Day
11h 34m
Waxing Gibbous, 75% of the Moon is Illuminated
Mar 3
Waxing Gibbous
Mar 8
Full
Mar 14
Last Quarter
Mar 22
New
Mar 30
First Quarter

Hourly Weather History & Observations

Time (EST) Temp. Dew Point Humidity Pressure Visibility Wind Dir Wind Speed Gust Speed Precip Events Conditions
12:56 AM 66.0 °F 60.1 °F 81% 29.82 in 10.0 mi South 5.8 mph - N/A   Clear
1:56 AM 66.0 °F 60.1 °F 81% 29.81 in 10.0 mi SSW 5.8 mph - N/A   Clear
2:56 AM 66.0 °F 60.1 °F 81% 29.78 in 10.0 mi SSW 6.9 mph - N/A   Clear
3:56 AM 64.9 °F 60.1 °F 84% 29.78 in 10.0 mi SSW 5.8 mph - N/A   Clear
4:42 AM 66.2 °F 60.8 °F 83% 29.78 in 10.0 mi SW 9.2 mph - N/A   Mostly Cloudy
4:56 AM 66.0 °F 60.1 °F 81% 29.78 in 10.0 mi SW 11.5 mph - N/A   Mostly Cloudy
5:03 AM 66.2 °F 60.8 °F 83% 29.78 in 10.0 mi SW 12.7 mph - N/A   Scattered Clouds
5:56 AM 66.9 °F 61.0 °F 81% 29.80 in 10.0 mi SW 8.1 mph - N/A   Partly Cloudy
6:14 AM 68.0 °F 62.6 °F 83% 29.80 in 10.0 mi WSW 9.2 mph - N/A   Mostly Cloudy
6:56 AM 68.0 °F 63.0 °F 84% 29.80 in 10.0 mi SW 9.2 mph - N/A   Mostly Cloudy
7:09 AM 68.0 °F 62.6 °F 83% 29.79 in 10.0 mi SW 8.1 mph - N/A   Scattered Clouds
7:56 AM 69.1 °F 63.0 °F 81% 29.81 in 10.0 mi WSW 8.1 mph - N/A   Clear
8:56 AM 71.1 °F 64.0 °F 78% 29.80 in 10.0 mi SW 11.5 mph - N/A   Clear
9:56 AM 73.0 °F 64.0 °F 73% 29.79 in 10.0 mi SSW 12.7 mph 19.6 mph N/A   Clear
10:56 AM 73.0 °F 64.9 °F 76% 29.79 in 10.0 mi SSW 5.8 mph - N/A   Mostly Cloudy
11:30 AM 69.8 °F 64.4 °F 83% 29.78 in 1.8 mi SSE 4.6 mph - 0.04 in Rain Heavy Rain
11:34 AM 68.0 °F 64.4 °F 88% 29.77 in 1.0 mi SSE 5.8 mph - 0.10 in Rain , Thunderstorm Heavy Thunderstorms and Rain
11:41 AM 68.0 °F 66.2 °F 94% 29.78 in 1.2 mi Calm Calm - 0.13 in Rain , Thunderstorm Heavy Thunderstorms and Rain
11:47 AM 68.0 °F 64.4 °F 88% 29.86 in 0.8 mi WNW 15.0 mph - 0.30 in Rain , Thunderstorm Heavy Thunderstorms and Rain
11:50 AM 68.0 °F 64.4 °F 88% 29.81 in 0.2 mi WSW 15.0 mph 25.3 mph 0.56 in Fog , Rain , Thunderstorm Heavy Thunderstorms and Rain
11:56 AM 64.0 °F 62.1 °F 93% 29.84 in 0.2 mi North 20.7 mph 26.5 mph 0.77 in Fog , Rain , Thunderstorm Heavy Thunderstorms and Rain
12:01 PM 60.8 °F 57.2 °F 88% 29.85 in 0.5 mi North 20.7 mph 27.6 mph 0.04 in Fog , Rain , Thunderstorm Heavy Thunderstorms and Rain
12:03 PM 60.8 °F 57.2 °F 88% 29.84 in 0.8 mi NNW 17.3 mph 27.6 mph 0.05 in Rain , Thunderstorm Heavy Thunderstorms and Rain
12:09 PM 60.8 °F 57.2 °F 88% 29.84 in 3.0 mi North 11.5 mph - 0.07 in Rain , Thunderstorm Thunderstorms and Rain
12:17 PM 60.8 °F 57.2 °F 88% 29.83 in 3.0 mi North 11.5 mph - 0.12 in Rain , Thunderstorm Heavy Rain
12:56 PM 60.1 °F 57.0 °F 90% 29.80 in 3.0 mi NNE 6.9 mph - 0.23 in Rain Rain
1:03 PM 60.8 °F 57.2 °F 88% 29.79 in 7.0 mi North 5.8 mph - 0.00 in Rain Light Rain
1:32 PM 60.8 °F 57.2 °F 88% 29.78 in 2.0 mi East 4.6 mph - 0.10 in Rain , Thunderstorm Heavy Rain
1:53 PM 60.8 °F 59.0 °F 94% 29.83 in 3.0 mi South 8.1 mph - 0.20 in Rain Rain
1:56 PM 60.1 °F 57.9 °F 93% 29.83 in 3.0 mi SSW 5.8 mph - 0.21 in Rain Rain
2:16 PM 60.8 °F 57.2 °F 88% 29.77 in 2.5 mi ESE 5.8 mph - 0.06 in Rain Heavy Rain
2:56 PM 60.1 °F 57.9 °F 93% 29.76 in 2.5 mi Calm Calm - 0.16 in Rain Heavy Rain
3:03 PM 60.8 °F 57.2 °F 88% 29.77 in 3.0 mi Calm Calm - 0.02 in Rain Heavy Rain
3:11 PM 60.8 °F 57.2 °F 88% 29.77 in 2.5 mi North 3.5 mph - 0.05 in Rain Heavy Rain
3:20 PM 60.8 °F 57.2 °F 88% 29.78 in 4.0 mi Calm Calm - 0.08 in Rain Heavy Rain
3:26 PM 60.8 °F 57.2 °F 88% 29.78 in 2.0 mi Calm Calm - 0.11 in Rain , Thunderstorm Heavy Rain
3:29 PM 60.8 °F 57.2 °F 88% 29.77 in 3.0 mi Calm Calm - 0.13 in Rain Heavy Rain
3:56 PM 60.1 °F 57.9 °F 93% 29.78 in 3.0 mi SSE 4.6 mph - 0.25 in Rain Rain
4:03 PM 60.8 °F 57.2 °F 88% 29.77 in 2.5 mi South 3.5 mph - 0.03 in Rain Rain
4:10 PM 60.8 °F 57.2 °F 88% 29.76 in 2.0 mi SSE 8.1 mph - 0.06 in Rain Heavy Rain
4:17 PM 60.8 °F 57.2 °F 88% 29.76 in 3.0 mi SE 8.1 mph - 0.07 in Rain Rain
4:36 PM 60.8 °F 57.2 °F 88% 29.76 in 5.0 mi SSE 6.9 mph - 0.09 in Rain Light Rain
4:43 PM 60.8 °F 57.2 °F 88% 29.75 in 4.0 mi SE 4.6 mph - 0.10 in Rain Rain
4:52 PM 59.0 °F 57.2 °F 94% 29.75 in 4.0 mi SE 4.6 mph - 0.13 in Rain Rain
4:56 PM 60.1 °F 57.0 °F 90% 29.74 in 4.0 mi SE 5.8 mph - 0.13 in Rain Rain
5:29 PM 59.0 °F 57.2 °F 94% 29.72 in 10.0 mi East 3.5 mph - 0.02 in Rain Light Rain
5:56 PM 60.1 °F 57.0 °F 90% 29.74 in 9.0 mi Calm Calm - 0.03 in Rain Light Rain
6:18 PM 60.8 °F 57.2 °F 88% 29.73 in 10.0 mi SE 3.5 mph - 0.02 in   Overcast
6:25 PM 60.8 °F 57.2 °F 88% 29.73 in 10.0 mi South 3.5 mph - 0.02 in   Overcast
6:52 PM 59.0 °F 57.2 °F 94% 29.76 in 4.0 mi Calm Calm - 0.04 in Rain Rain
6:56 PM 59.0 °F 57.0 °F 93% 29.77 in 4.0 mi Calm Calm - 0.05 in Rain Rain
7:12 PM 59.0 °F 57.2 °F 94% 29.76 in 4.0 mi WSW 3.5 mph - 0.05 in Rain Rain
7:34 PM 60.8 °F 57.2 °F 88% 29.77 in 4.0 mi NNW 4.6 mph - 0.12 in Rain Rain
7:56 PM 59.0 °F 57.9 °F 96% 29.77 in 4.0 mi Calm Calm - 0.18 in Rain Heavy Rain
8:05 PM 59.0 °F 57.2 °F 94% 29.77 in 2.5 mi Calm Calm - 0.03 in Rain Rain
8:12 PM 59.0 °F 57.2 °F 94% 29.76 in 3.0 mi NW 5.8 mph - 0.05 in Rain Rain
8:26 PM 59.0 °F 57.2 °F 94% 29.74 in 5.0 mi NW 3.5 mph - 0.08 in Rain Rain
8:56 PM 57.9 °F 55.9 °F 93% 29.76 in 4.0 mi NW 6.9 mph - 0.13 in Rain Heavy Rain
9:56 PM 57.9 °F 55.0 °F 90% 29.75 in 6.0 mi Calm Calm - 0.13 in Rain Rain
10:56 PM 57.0 °F 55.0 °F 93% 29.75 in 2.5 mi NW 5.8 mph - 0.23 in Rain Heavy Rain
11:06 PM 57.2 °F 55.4 °F 94% 29.74 in 4.0 mi Calm Calm - 0.03 in Rain Rain
11:17 PM 57.2 °F 55.4 °F 94% 29.74 in 2.5 mi Calm Calm - 0.08 in Rain Heavy Rain
11:26 PM 57.2 °F 55.4 °F 94% 29.73 in 3.0 mi Calm Calm - 0.10 in Rain Rain
11:56 PM 57.0 °F 55.0 °F 93% 29.74 in 4.0 mi NW 10.4 mph - 0.20 in Rain Heavy Rain